CW0858 Weather Reports


time (UTC)temp
C
wind
direction
speed
KPH
gust
KPH
rain 1hr
cm
rain 24hr
cm
rain mn
cm
humidity
%
barometer
mb
20260505124528 11 0 0.0 0.0 0.00 0.00 0.00 87 1014.7
20260505123029 11 0 0.0 1.6 0.00 0.00 0.00 88 1014.5
20260505121529 11 0 0.0 1.6 0.00 0.00 0.00 88 1014.6
20260505120028 11 0 0.0 1.6 0.00 0.00 0.00 88 1014.5
20260505114530 11 0 0.0 1.6 0.00 0.00 0.00 88 1014.5
20260505113032 11 0 0.0 1.6 0.00 0.00 0.00 88 1014.5
20260505111530 11 0 0.0 1.6 0.00 0.00 0.00 88 1014.4
20260505101533 11 0 0.0 1.6 0.00 0.00 0.00 88 1014.1
20260505100030 11 111 0.0 1.6 0.00 0.00 0.00 88 1014.1
20260505094529 11 0 0.0 3.2 0.00 0.00 0.00 88 1014.1
20260505093039 11 0 0.0 1.6 0.00 0.00 0.00 88 1013.9
20260505091530 11 0 0.0 1.6 0.00 0.00 0.00 87 1013.9
20260505090028 11 0 0.0 1.6 0.00 0.00 0.00 87 1013.8
20260505084530 12 115 0.0 3.2 0.00 0.00 0.00 86 1013.6
20260505083032 12 0 0.0 1.6 0.00 0.00 0.00 85 1013.6
20260505081531 12 0 0.0 3.2 0.00 0.00 0.00 84 1013.4
20260505080030 12 0 0.0 1.6 0.00 0.00 0.00 82 1013.3
20260505074528 13 0 0.0 1.6 0.00 0.00 0.00 82 1013.2
20260505073036 13 0 0.0 3.2 0.00 0.00 0.00 82 1013.0
20260505071528 13 0 0.0 4.8 0.00 0.00 0.00 82 1013.0
20260505070028 13 0 0.0 3.2 0.00 0.00 0.00 81 1012.9
20260505064528 13 95 0.0 4.8 0.00 0.00 0.00 82 1012.7
20260505063030 13 117 0.0 3.2 0.00 0.00 0.00 81 1012.4
20260505061534 14 0 0.0 1.6 0.00 0.00 0.00 80 1012.2
20260505060033 15 102 0.0 3.2 0.00 0.00 0.00 80 1012.1
20260505054537 15 0 0.0 1.6 0.00 0.00 0.00 79 1012.0
20260505053039 15 0 0.0 0.0 0.00 0.00 0.00 79 1011.8
20260505051531 15 0 0.0 0.0 0.00 0.00 0.00 78 1011.7
20260505041529 17 0 0.0 0.0 0.00 0.00 0.00 71 1011.0
20260505040032 18 0 0.0 1.6 0.00 0.00 0.00 69 1010.8
20260505034530 18 0 0.0 1.6 0.00 0.00 0.00 68 1010.5
20260505033045 19 0 0.0 3.2 0.00 0.00 0.00 68 1010.3
20260505031528 20 0 0.0 1.6 0.00 0.00 0.00 68 1010.2
20260505030031 20 91 0.0 3.2 0.00 0.00 0.00 68 1010.0
20260505024529 20 0 0.0 1.6 0.00 0.00 0.00 67 1009.9
20260505023028 21 0 0.0 1.6 0.00 0.00 0.00 65 1009.9
20260505021529 21 0 0.0 1.6 0.00 0.00 0.00 66 1009.8
20260505020030 21 0 0.0 11.3 0.00 0.00 0.00 65 1009.8
20260505014532 22 79 0.0 3.2 0.00 0.00 0.00 63 1009.7
20260505013030 22 0 0.0 6.4 0.00 0.00 0.00 63 1009.8
20260505011527 22 75 0.0 3.2 0.00 0.00 0.00 64 1009.8
20260505010028 22 0 0.0 4.8 0.00 0.00 0.00 62 1010.0
20260505004541 22 144 0.0 6.4 0.00 0.00 0.00 62 1010.1
20260505003029 22 299 0.0 4.8 0.00 0.00 0.00 62 1010.1
20260505001531 22 144 1.6 6.4 0.00 0.00 0.00 62 1010.1
20260505000028 22 276 1.6 4.8 0.00 0.00 0.00 62 1010.3
20260504234536 22 292 0.0 4.8 0.00 0.00 0.00 63 1010.4
20260504233031 22 121 0.0 4.8 0.00 0.00 0.00 61 1010.4
20260504231540 22 325 1.6 4.8 0.00 0.00 0.00 60 1010.5
20260504230029 22 0 1.6 6.4 0.00 0.00 0.00 61 1010.7
20260504224530 22 176 1.6 4.8 0.00 0.00 0.00 59 1010.9
20260504223030 22 0 0.0 3.2 0.00 0.00 0.00 61 1011.1
20260504221529 21 51 0.0 3.2 0.00 0.00 0.00 60 1011.3
20260504220029 21 230 0.0 4.8 0.00 0.00 0.00 62 1011.5
20260504214537 21 110 0.0 4.8 0.00 0.00 0.00 58 1011.7
20260504213030 20 68 0.0 4.8 0.00 0.00 0.00 61 1011.8
20260504211529 21 98 0.0 4.8 0.00 0.00 0.00 62 1012.0
20260504210028 21 131 1.6 4.8 0.00 0.00 0.00 62 1012.2
20260504204556 20 0 0.0 6.4 0.00 0.00 0.00 65 1012.4
20260504203031 19 311 0.0 8.0 0.00 0.00 0.00 65 1012.5
20260504201528 18 153 1.6 4.8 0.00 0.00 0.00 67 1012.9
20260504200036 18 306 1.6 6.4 0.00 0.00 0.00 68 1013.0
20260504194534 17 134 0.0 4.8 0.00 0.00 0.00 72 1013.1
20260504193032 16 101 0.0 3.2 0.00 0.00 0.00 74 1013.2
20260504191529 16 317 0.0 6.4 0.00 0.00 0.00 74 1013.3
20260504190036 16 0 0.0 6.4 0.00 0.00 0.00 77 1013.4
20260504184528 15 103 0.0 3.2 0.00 0.00 0.00 76 1013.5
20260504183030 15 98 1.6 4.8 0.00 0.00 0.00 77 1013.5
20260504181529 15 107 0.0 3.2 0.00 0.00 0.00 79 1013.5
20260504180030 14 0 0.0 3.2 0.00 0.00 0.00 79 1013.6
20260504174530 14 301 1.6 4.8 0.00 0.00 0.00 79 1013.5
20260504173027 14 0 0.0 3.2 0.00 0.00 0.00 80 1013.5
20260504171538 13 0 0.0 3.2 0.00 0.00 0.00 81 1013.4